KW1M Weather Reports


Display with metric or nautical units.
time (UTC)temp
F
wind
direction
speed
MPH
gust
MPH
rain 1hr
in
rain 24hr
in
rain mn
in
humidity
%
barometer
mb
20260902100047 59 158 0.0 1.0 0.00 0.28 0.01 97 1022.1
20260902094549 59 12 0.0 0.0 0.00 0.28 0.01 97 1021.9
20260902093046 59 15 0.0 0.0 0.00 0.28 0.01 97 1022.0
20260902091548 59 15 0.0 0.0 0.00 0.28 0.01 97 1022.1
20260902090043 59 15 0.0 0.0 0.00 0.28 0.01 97 1022.0
20260902084542 59 15 0.0 0.0 0.00 0.28 0.01 97 1021.9
20260902083042 60 15 0.0 0.0 0.00 0.28 0.01 96 1021.8
20260902081544 60 15 0.0 0.0 0.01 0.28 0.01 96 1022.0
20260902080040 60 15 0.0 0.0 0.01 0.28 0.01 96 1022.1
20260902074552 60 15 0.0 0.0 0.01 0.28 0.01 96 1022.1
20260902073039 60 15 0.0 0.0 0.01 0.28 0.01 96 1022.2
20260902071538 60 39 0.0 0.0 0.00 0.28 0.00 96 1022.2
20260902070038 60 40 0.0 0.0 0.00 0.28 0.00 96 1021.9
20260902064536 60 77 0.0 0.0 0.00 0.28 0.00 96 1021.9
20260902063054 60 76 0.0 0.0 0.00 0.28 0.00 96 1021.8
20260902061531 60 77 0.0 0.0 0.00 0.28 0.00 95 1021.8
20260902060029 60 77 0.0 0.0 0.00 0.28 0.00 95 1021.7
20260902054533 60 77 0.0 0.0 0.00 0.00 0.00 95 1021.6
20260902053029 60 79 0.0 0.0 0.00 0.28 0.00 95 1021.5
20260902051537 60 80 0.0 0.0 0.00 0.28 0.00 94 1021.5
20260902050029 60 91 0.0 0.0 0.00 0.28 0.00 94 1021.3
20260902044521 60 92 0.0 0.0 0.00 0.28 0.00 94 1021.0
20260902043017 60 92 0.0 0.0 0.00 0.28 0.00 93 1020.8
20260902041514 60 95 0.0 1.0 0.00 0.28 0.00 94 1020.4
20260902040015 60 116 0.0 0.0 0.00 0.28 0.00 94 1020.3
20260902034512 60 115 0.0 0.0 0.00 0.28 0.28 94 1020.3
20260902033012 60 115 0.0 0.0 0.00 0.28 0.28 94 1020.3
20260902031511 60 115 0.0 0.0 0.00 0.28 0.28 94 1020.3
20260902030010 60 115 0.0 0.0 0.00 0.28 0.28 94 1020.1
20260902024510 60 115 0.0 0.0 0.00 0.28 0.28 94 1020.1
20260902023010 60 116 0.0 0.0 0.00 0.28 0.28 94 1020.1
20260902021509 60 115 0.0 0.0 0.00 0.28 0.28 93 1020.3
20260902020007 60 115 0.0 0.0 0.00 0.28 0.28 93 1020.1
20260902014513 60 115 0.0 0.0 0.00 0.28 0.28 93 1020.2
20260902013007 60 115 0.0 2.0 0.00 0.28 0.28 92 1020.2
20260902011512 60 145 0.0 0.0 0.00 0.28 0.28 92 1020.2
20260902010005 60 121 0.0 2.0 0.00 0.28 0.28 92 1020.0
20260902004504 60 136 0.0 2.0 0.00 0.28 0.28 92 1019.9
20260902003005 61 113 0.0 2.0 0.00 0.28 0.28 93 1019.8
20260902001601 61 117 0.0 1.0 0.00 0.28 0.28 94 1019.4
20260902000104 62 127 1.0 3.0 0.00 0.28 0.28 94 1019.5
20260901234557 62 134 0.0 3.0 0.00 0.28 0.28 94 1019.3
20260901233057 63 139 0.0 2.0 0.00 0.28 0.28 94 1019.2
20260901231602 63 293 0.0 2.0 0.00 0.28 0.28 94 1019.4
20260901230056 63 117 0.0 1.0 0.00 0.28 0.28 94 1019.4
20260901224554 64 143 0.0 3.0 0.00 0.28 0.28 93 1019.3
20260901223052 64 143 0.0 2.0 0.00 0.28 0.28 92 1019.1
20260901221554 64 117 0.0 2.0 0.00 0.28 0.28 91 1018.9
20260901220051 65 125 0.0 5.0 0.00 0.28 0.28 91 1018.8
20260901214551 65 121 0.0 3.0 0.00 0.28 0.28 91 1018.8
20260901213050 65 134 0.0 3.0 0.00 0.28 0.28 90 1018.9
20260901211550 66 149 0.0 3.0 0.00 0.28 0.28 90 1018.6
20260901210105 66 149 0.0 2.0 0.00 0.28 0.28 90 1018.6
20260901204548 66 212 0.0 1.0 0.00 0.28 0.28 90 1018.6
20260901203049 66 172 0.0 1.0 0.00 0.28 0.28 88 1018.4
20260901201547 66 153 0.0 1.0 0.00 0.28 0.28 88 1018.1
20260901200047 66 222 0.0 1.0 0.00 0.28 0.28 89 1018.3
20260901194546 66 198 0.0 0.0 0.00 0.28 0.28 89 1018.4
20260901193045 66 105 0.0 0.0 0.00 0.28 0.28 88 1018.3
20260901191544 66 12 0.0 0.0 0.00 0.28 0.28 89 1018.4
20260901190100 66 160 0.0 1.0 0.00 0.28 0.28 88 1018.6
20260901184542 66 195 0.0 0.0 0.00 0.28 0.28 88 1018.5
20260901183037 66 101 0.0 0.0 0.00 0.28 0.28 89 1018.5
20260901181538 65 148 0.0 1.0 0.00 0.28 0.28 89 1018.4
20260901180034 65 166 0.0 0.0 0.00 0.28 0.28 90 1018.4
20260901174543 64 122 0.0 0.0 0.00 0.28 0.28 91 1018.2
20260901173034 63 27 0.0 1.0 0.00 0.28 0.28 90 1018.0
20260901171533 63 159 0.0 2.0 0.01 0.28 0.28 91 1018.1
20260901170031 62 141 0.0 1.0 0.01 0.28 0.28 94 1017.8
20260901164533 61 125 0.0 0.0 0.01 0.28 0.28 95 1017.9
20260901163058 61 122 0.0 1.0 0.01 0.28 0.28 95 1018.1
20260901161531 60 302 0.0 1.0 0.00 0.27 0.27 95 1018.4
20260901160029 60 203 0.0 0.0 0.00 0.27 0.27 95 1018.5
20260901154545 60 203 0.0 1.0 0.00 0.27 0.27 95 1018.7
20260901153037 59 354 0.0 0.0 0.00 0.27 0.27 94 1018.4
20260901151533 60 140 0.0 0.0 0.00 0.27 0.27 94 1018.2
20260901150027 60 159 0.0 0.0 0.00 0.27 0.27 93 1018.2
20260901144528 61 221 0.0 0.0 0.00 0.27 0.27 94 1018.3
20260901143027 60 134 0.0 1.0 0.01 0.27 0.27 95 1018.1
20260901141527 60 122 0.0 1.0 0.01 0.27 0.27 96 1018.1
20260901140025 59 115 0.0 1.0 0.03 0.27 0.27 96 1018.1
20260901134526 58 141 0.0 1.0 0.06 0.27 0.27 96 1018.1
20260901133024 57 136 0.0 1.0 0.07 0.26 0.26 96 1018.0
20260901131523 57 150 0.0 0.0 0.09 0.26 0.26 95 1018.4
20260901130022 57 179 0.0 0.0 0.09 0.24 0.24 95 1018.6
20260901124521 58 155 0.0 0.0 0.13 0.21 0.21 95 1018.7
20260901123020 58 155 0.0 0.0 0.15 0.19 0.19 95 1018.9
20260901121526 58 155 0.0 0.0 0.16 0.17 0.17 94 1018.9
20260901120017 58 155 0.0 0.0 0.15 0.15 0.15 94 1019.1
20260901114513 59 297 0.0 0.0 0.08 0.08 0.08 93 1018.9
20260901113010 59 297 0.0 0.0 0.04 0.04 0.04 92 1018.5
20260901111508 60 297 0.0 0.0 0.01 0.01 0.01 90 1018.3
20260901110008 61 297 0.0 0.0 0.00 0.00 0.00 88 1018.2
20260901104507 61 85 0.0 0.0 0.00 0.00 0.00 88 1018.1
20260901103000 62 84 0.0 0.0 0.00 0.00 0.00 86 1017.9
20260901101600 62 330 0.0 0.0 0.00 0.00 0.00 85 1017.9